Location: ???? ?????????
(44.3677°N, 135.2344°E)
Time: 08:09:29
(UTC+00:00)

Cosmos 2228 Rocket - Pass Details

Date: 19 May 2025
Orbit: 612 x 648 km, 82.5° (Epoch: 24 June)

Event Time Altitude Azimuth Distance (km) Brightness Sun altitude
Exits shadow 17:13:02 30° 175° (S) 1,149 4.0 -18.4°
Maximum altitude 17:15:12 73° 96° (E) 680 3.3 -18.2°
Drops below altitude 10° 17:19:46 10° 12° (NNE) 2,057 6.8 -17.8°
Sets 17:22:02 0° 11° (N) 2,969 7.7 -17.5°
